COSMOS 1812 (17295 NORAD) Tracking and Keplerian Element Data

This shows tracking and keplerian element data for the satellite.

Feedback or suggestion? Click here.




ElementValue
Catalog17295
NameCOSMOS 1812
Epoch Orbit2264
Epoch Day12.94600159
Epoch Year2024
RAAN293.9452
Inclination82.5107
Eccentricity0.0005406
Argument of Perigee72.4901
Mean Anonmoly287.6928
Mean Motion15.2699981
Decay Rate0.0001538
L11 17295U 87003A 24012.94600159 .00015380 00000+0 57869-3 0 9999
L22 17295 82.5107 293.9452 0005406 72.4901 287.6928 15.26999810 22647



Live tracking and technical data element details for COSMOS 1812 (NORAD 17295). COSMOS 1812 can be tracked NOW for your location showing map with azimuth and elevation plus other details from your city location.







IsCatalogInMostPopularTable: catalog: 17295, numindb: 406
Update: records affected: 1



GetName: 17295 COSMOS 1812

Hit Count: updated at: Fri, 19 Apr 2024 13:13:16 GMT